STARLINK-1216, 45185

Orbit data source: Space-Track

STARLINK-1216, 45185 is a payload satellite owned by SpaceX/Seattle (US) in LEO that was launched on Mon, 17 Feb 2020 UTC via an FALCON 9 launch vehicle from the Air Force Eastern Test Range (AFETR). Payload-class satellites include a variety of spacecraft equipped with specific instruments for various scientific and technological missions. These include communications satellites like Starlink; space stations such as the ISS; scientific satellites like the Hubble; Earth observation satellites from companies like Planet Labs, Umbra, and HawkEye 360; GPS; miniature CubeSats for education and research; and military/defense satellites.

Loading next visibility...
Identifier
45185, 2020-012H
Orbit
LEO
Country
Flag of USUS
Related business
Manufacturer
SpaceX/Seattle
Mission
Operational Commercial Communications
Bus & Motor
STARLINK, Unknown motor
Mass
260 kg wet, ~248 kg dry
Launch date (UTC)
2020-02-17 (6 years ago)
Launch vehicle
FALCON 9
Launch site
Air Force Eastern Test Range (AFETR)
Object type
Payload
Rocket body
Debris
Shape & HBR
Box + 1 Pan, 10.1 m
Radar Cross Section
13.562 m², Large (>1 m²)

Expand to show TLE details & history
Last TLE update: 9 hours ago

TLE from 9 hours ago
0 STARLINK-1216
1 45185U 20012H   25288.53240045  .00011387  00000-0  78246-3 0  9996
2 45185  53.0550 338.2551 0001360  78.3739 281.7402 15.06381922312903
Epoch: 2025-10-15T12:46Z
TLE epoch observation values (Epoch: 2025-10-15T12:46:39.398Z)
Latitude
-0.00009°
Longitude
122.28575°
Altitude
547.955 km
Speed
7.589 km/s
True Right ascension
22h 33m 01s
True Declination
0° 00' 00"
Sunlit
Object was in full shadow at epoch
Visualization orbit readout
Latitude
Unknown
Longitude
Unknown
Altitude
Unknown
Speed
Unknown
Apparent Right ascension
Unknown
Apparent Declination
Unknown
Sunlit
N/A
Visualization observer readout
Local Sidereal Time
16:07:01
Azimuth
Unknown
Elevation
Unknown
Doppler factor
Unknown
Orbital elements
Apogee altitude
548.479 km
Perigee altitude
546.596 km
Semi-major axis
6,925.675 km
Eccentricity
0.00014
Inclination
53.055°
RAAN
338.2551°
Arg. of periapsis
78.3739°
True anomaly
281.72494°
Mean anomaly
281.7402°
Eccentric anomaly
281.73257°
Mean motion
3.76574 °/min
Orbital period
95.6 mins
BSTAR
0.00078246
Loading maneuver chart data...
Computing Atmospheric mass density...
Loading historical data...
Loading historical data...
Loading historical data...
Loading historical data...
Loading historical data...
Loading historical data...
Loading historical data...

Documentation

Showing up to 5 results
|